Date String (YYYY-MM-DD hh:mm:ss) UTC,Instrument flags,absolute air pressure of the measurement (hPa),sample flow rate (lpm),inlet stack bypass flow (lpm),air temperature of the measurement (°C),ambient temperature measured by the external sensor (°C),aerosol sample conditioner tube jacket temperature (°C),OPC LED temperature (°C),internal box temperature (°C),relative humidity of the measurement (%),span deviation,mass concentration of particles derived from Lorenz-Mie calculation of OPC scattering (μg/m³),mass concentration of particles derived from Lorenz-Mie calculation of OPC scattering (μg/m³),mass concentration of particles derived from Lorenz-Mie calculation of OPC scattering (μg/m³)
DateTimeUTC,F1_M11,P_M11,Q1_M11,Q2_M11,T1_M11,T2_M11,T3_M11,T4_M11,T5_M11,U1_M11,ZSPAN_M11,X0_M11,X2_M11,X1_M11
2023-11-27 23:00:00,SystemResetWarning,0832.7,4.99,000.00,023.5,022.6,000.0,031.6,024.9,8.6,0000.0,0010.66,0004.13,0003.41
2023-11-27 23:01:00,SystemResetWarning,0832.7,5.00,000.00,023.5,022.6,000.0,031.6,024.9,8.7,0000.0,0010.88,0004.14,0003.42
2023-11-27 23:02:00,SystemResetWarning,0832.7,5.01,000.00,023.5,022.6,000.0,031.6,024.9,8.7,0000.0,0011.37,0004.18,0003.43
2023-11-27 23:03:00,SystemResetWarning,0832.7,5.01,000.00,023.5,022.6,000.0,031.6,024.9,8.8,0000.0,0011.36,0004.19,0003.44
2023-11-27 23:04:00,SystemResetWarning,0832.7,5.00,000.00,023.5,022.6,000.0,031.6,024.9,9.0,0000.0,0011.50,0004.23,0003.45
2023-11-27 23:05:00,SystemResetWarning,0832.7,5.00,000.00,023.5,022.6,000.0,031.6,024.9,9.0,0000.0,0011.30,0004.25,0003.45
2023-11-27 23:06:00,SystemResetWarning,0832.7,4.99,000.00,023.5,022.6,000.0,031.7,024.9,8.7,0000.0,0011.52,0004.29,0003.46
2023-11-27 23:07:00,SystemResetWarning,0832.9,4.99,000.00,023.5,022.6,000.0,031.7,024.9,8.6,0000.0,0011.56,0004.32,0003.48
2023-11-27 23:08:00,SystemResetWarning,0832.8,5.00,000.00,023.5,022.6,000.0,031.7,024.9,8.7,0000.0,0011.64,0004.30,0003.49
2023-11-27 23:09:00,SystemResetWarning,0832.9,5.01,000.00,023.5,022.7,000.0,031.7,024.9,8.7,0000.0,0011.58,0004.30,0003.50
2023-11-27 23:10:00,SystemResetWarning,0832.8,5.00,000.00,023.5,022.7,000.0,031.7,024.9,8.7,0000.0,0012.30,0004.34,0003.52
2023-11-27 23:11:00,SystemResetWarning,0832.7,5.01,000.00,023.6,022.7,000.0,031.7,024.9,8.8,0000.0,0011.79,0004.35,0003.53
2023-11-27 23:12:00,SystemResetWarning,0832.7,5.00,000.00,023.6,022.7,000.0,031.7,025.0,8.9,0000.0,0011.19,0004.37,0003.54
2023-11-27 23:13:00,SystemResetWarning,0832.7,5.00,000.00,023.6,022.7,000.0,031.7,025.0,8.9,0000.0,0010.26,0004.33,0003.55
2023-11-27 23:14:00,SystemResetWarning,0832.7,5.00,000.00,023.6,022.7,000.0,031.7,025.0,8.9,0000.0,0010.35,0004.34,0003.55
2023-11-27 23:15:00,SystemResetWarning,0832.7,5.00,000.00,023.6,022.7,000.0,031.7,025.0,9.0,0000.0,0010.17,0004.34,0003.57
2023-11-27 23:16:00,SystemResetWarning,0832.8,4.99,000.00,023.6,022.7,000.0,031.8,025.0,9.0,0000.0,0010.92,0004.43,0003.60
2023-11-27 23:17:00,SystemResetWarning,0832.7,5.00,000.00,023.6,022.7,000.0,031.8,025.0,9.2,0000.0,0010.96,0004.48,0003.63
2023-11-27 23:18:00,SystemResetWarning,0832.7,5.00,000.00,023.6,022.7,000.0,031.8,024.9,9.2,0000.0,0011.26,0004.48,0003.64
2023-11-27 23:19:00,SystemResetWarning,0832.8,4.99,000.00,023.6,022.7,000.0,031.8,024.9,9.1,0000.0,0011.62,0004.53,0003.67
2023-11-27 23:20:00,SystemResetWarning,0832.7,5.00,000.00,023.6,022.7,000.0,031.8,024.9,9.0,0000.0,0012.33,0004.57,0003.68
2023-11-27 23:21:00,SystemResetWarning,0832.7,5.00,000.00,023.6,022.7,000.0,031.8,024.9,8.9,0000.0,0012.14,0004.63,0003.69
2023-11-27 23:22:00,SystemResetWarning,0832.7,5.00,000.00,023.6,022.7,000.0,031.8,024.9,9.0,0000.0,0012.12,0004.65,0003.70
2023-11-27 23:23:00,SystemResetWarning,0832.7,5.00,000.00,023.6,022.7,000.0,031.8,024.9,9.1,0000.0,0012.14,0004.66,0003.71
2023-11-27 23:24:00,SystemResetWarning,0832.7,5.01,000.00,023.6,022.7,000.0,031.8,024.9,9.1,0000.0,0012.99,0004.70,0003.72
2023-11-27 23:25:00,SystemResetWarning,0832.8,5.00,000.00,023.6,022.6,000.0,031.8,024.9,9.1,0000.0,0013.37,0004.67,0003.72
2023-11-27 23:26:00,SystemResetWarning,0832.8,4.99,000.00,023.6,022.6,000.0,031.8,024.9,9.2,0000.0,0014.03,0004.67,0003.72
2023-11-27 23:27:00,SystemResetWarning,0832.8,4.99,000.00,023.6,022.6,000.0,031.8,024.9,9.5,0000.0,0013.99,0004.58,0003.70
2023-11-27 23:28:00,SystemResetWarning,0832.8,5.00,000.00,023.6,022.6,000.0,031.8,024.8,9.4,0000.0,0013.64,0004.49,0003.68
2023-11-27 23:29:00,SystemResetWarning,0832.8,5.01,000.00,023.5,022.6,000.0,031.8,024.8,9.5,0000.0,0013.38,0004.48,0003.67
2023-11-27 23:30:00,SystemResetWarning,0832.8,5.01,000.00,023.5,022.6,000.0,031.8,024.8,9.5,0000.0,0013.67,0004.45,0003.65
2023-11-27 23:31:00,SystemResetWarning,0832.8,4.99,000.00,023.5,022.6,000.0,031.8,024.8,9.8,0000.0,0013.24,0004.42,0003.63
2023-11-27 23:32:00,SystemResetWarning,0832.7,4.99,000.00,023.5,022.6,000.0,031.8,024.8,9.9,0000.0,0012.96,0004.35,0003.61
2023-11-27 23:33:00,SystemResetWarning,0832.8,5.00,000.00,023.5,022.5,000.0,031.8,024.8,9.6,0000.0,0013.30,0004.32,0003.58
2023-11-27 23:34:00,SystemResetWarning,0832.8,5.01,000.00,023.5,022.5,000.0,031.8,024.8,9.5,0000.0,0013.00,0004.25,0003.55
2023-11-27 23:35:00,SystemResetWarning,0832.8,5.00,000.00,023.5,022.5,000.0,031.8,024.8,9.6,0000.0,0012.31,0004.20,0003.52
2023-11-27 23:36:00,SystemResetWarning,0832.8,5.00,000.00,023.5,022.5,000.0,031.8,024.8,9.7,0000.0,0012.40,0004.19,0003.49
2023-11-27 23:37:00,SystemResetWarning,0832.8,5.00,000.00,023.5,022.5,000.0,031.8,024.7,9.6,0000.0,0011.65,0004.16,0003.47
2023-11-27 23:38:00,SystemResetWarning,0832.8,5.00,000.00,023.5,022.5,000.0,031.8,024.7,9.5,0000.0,0011.37,0004.13,0003.43
2023-11-27 23:39:00,SystemResetWarning,0832.8,5.00,000.00,023.4,022.4,000.0,031.8,024.7,9.3,0000.0,0011.33,0004.11,0003.40
2023-11-27 23:40:00,SystemResetWarning,0832.8,5.00,000.00,023.4,022.4,000.0,031.8,024.7,9.2,0000.0,0011.44,0004.10,0003.39
2023-11-27 23:41:00,SystemResetWarning,0832.8,5.00,000.00,023.4,022.4,000.0,031.8,024.7,9.1,0000.0,0011.34,0004.07,0003.37
2023-11-27 23:42:00,SystemResetWarning,0832.8,5.00,000.00,023.4,022.5,000.0,031.8,024.7,9.1,0000.0,0011.57,0004.05,0003.35
2023-11-27 23:43:00,SystemResetWarning,0832.8,5.00,000.00,023.4,022.4,000.0,031.8,024.7,9.2,0000.0,0011.92,0004.07,0003.35
2023-11-27 23:44:00,SystemResetWarning,0832.8,5.00,000.00,023.4,022.4,000.0,031.8,024.7,9.1,0000.0,0011.21,0004.09,0003.37
2023-11-27 23:45:00,SystemResetWarning,0832.8,5.01,000.00,023.4,022.4,000.0,031.7,024.6,9.1,0000.0,0011.22,0004.10,0003.39
2023-11-27 23:46:00,SystemResetWarning,0832.7,5.00,000.00,023.4,022.4,000.0,031.7,024.6,9.2,0000.0,0011.34,0004.15,0003.42
2023-11-27 23:47:00,SystemResetWarning,0832.8,5.00,000.00,023.4,022.4,000.0,031.7,024.7,9.2,0000.0,0011.00,0004.23,0003.46
2023-11-27 23:48:00,SystemResetWarning,0832.8,5.00,000.00,023.4,022.4,000.0,031.7,024.6,9.2,0000.0,0011.15,0004.28,0003.50
2023-11-27 23:49:00,SystemResetWarning,0832.8,4.99,000.00,023.4,022.4,000.0,031.7,024.7,9.2,0000.0,0011.18,0004.35,0003.55
2023-11-27 23:50:00,SystemResetWarning,0832.8,5.00,000.00,023.4,022.4,000.0,031.7,024.7,9.3,0000.0,0011.17,0004.37,0003.60
2023-11-27 23:51:00,SystemResetWarning,0832.8,5.00,000.00,023.4,022.5,000.0,031.7,024.7,9.2,0000.0,0010.97,0004.39,0003.63
2023-11-27 23:52:00,SystemResetWarning,0832.8,4.99,000.00,023.4,022.5,000.0,031.7,024.7,9.2,0000.0,0010.26,0004.45,0003.69
2023-11-27 23:53:00,SystemResetWarning,0833.0,5.00,000.00,023.4,022.5,000.0,031.7,024.7,9.2,0000.0,0010.42,0004.50,0003.74
2023-11-27 23:54:00,SystemResetWarning,0832.8,5.00,000.00,023.4,022.5,000.0,031.7,024.7,9.1,0000.0,0010.48,0004.53,0003.79
2023-11-27 23:55:00,SystemResetWarning,0832.8,5.00,000.00,023.4,022.5,000.0,031.7,024.7,9.2,0000.0,0010.43,0004.54,0003.82
2023-11-27 23:56:00,SystemResetWarning,0832.8,5.00,000.00,023.4,022.5,000.0,031.7,024.7,9.2,0000.0,0010.67,0004.61,0003.85
2023-11-27 23:57:00,SystemResetWarning,0832.8,5.00,000.00,023.4,022.5,000.0,031.7,024.7,9.2,0000.0,0011.17,0004.67,0003.87
2023-11-27 23:58:00,SystemResetWarning,0833.1,5.00,000.00,023.4,022.5,000.0,031.7,024.7,9.2,0000.0,0011.62,0004.67,0003.89
2023-11-27 23:59:00,SystemResetWarning,0833.2,5.01,000.00,023.4,022.5,000.0,031.7,024.7,9.2,0000.0,0012.05,0004.69,0003.91
